FW6305 Weather Reports


time (UTC)temp
F
wind
direction
speed
knots
gust
knots
rain 1hr
in
rain 24hr
in
rain mn
in
humidity
%
barometer
mb
20260506211543 75 360 1.7 5.2 0.00 0.00 0.00 55 1018.8
20260506211032 75 346 1.7 5.2 0.00 0.00 0.00 56 1018.8
20260506210534 75 190 1.7 5.2 0.00 0.00 0.00 55 1018.8
20260506210044 74 265 1.7 5.2 0.00 0.00 0.00 55 1018.7
20260506205532 74 277 1.7 6.1 0.00 0.00 0.00 56 1018.9
20260506205032 75 275 0.9 6.1 0.00 0.00 0.00 54 1018.9
20260506204539 75 271 1.7 7.0 0.00 0.00 0.00 54 1019.1
20260506204032 74 360 0.9 7.0 0.00 0.00 0.00 56 1019.0
20260506203531 74 350 1.7 7.0 0.00 0.00 0.00 56 1019.0
20260506203047 73 0 0.9 5.2 0.00 0.00 0.00 59 1019.1
20260506202534 73 22 1.7 7.0 0.00 0.00 0.00 54 1019.3
20260506202033 73 285 2.6 7.0 0.00 0.00 0.00 54 1019.3
20260506201545 72 251 0.9 6.1 0.00 0.00 0.00 53 1019.4
20260506201034 72 5 0.9 6.1 0.00 0.00 0.00 52 1019.4
20260506200531 73 5 0.9 5.2 0.00 0.00 0.00 54 1019.5
20260506200041 72 0 0.0 6.1 0.00 0.00 0.00 56 1019.5
20260506195532 72 11 1.7 7.8 0.00 0.00 0.00 55 1019.7
20260506195031 71 5 2.6 7.8 0.00 0.00 0.00 59 1019.7
20260506194557 72 360 0.9 5.2 0.00 0.00 0.00 59 1019.7
20260506194035 71 5 1.7 7.8 0.00 0.00 0.00 58 1019.8
20260506193536 71 5 0.9 7.8 0.00 0.00 0.00 58 1019.8
20260506193045 71 360 2.6 7.0 0.00 0.00 0.00 57 1019.9
20260506192532 71 360 0.9 7.0 0.00 0.00 0.00 59 1020.0
20260506192032 71 14 2.6 7.0 0.00 0.00 0.00 62 1020.1
20260506191545 71 13 1.7 7.0 0.00 0.00 0.00 62 1020.1
20260506191033 70 15 1.7 7.0 0.00 0.00 0.00 64 1020.1
20260506190535 70 360 1.7 4.3 0.00 0.00 0.00 64 1020.2
20260506190044 70 16 1.7 10.4 0.00 0.00 0.00 63 1020.2
20260506185531 69 295 1.7 10.4 0.00 0.00 0.00 64 1020.2
20260506185030 70 360 0.9 5.2 0.00 0.00 0.00 64 1020.1
20260506184553 70 5 1.7 5.2 0.00 0.00 0.00 65 1020.2
20260506184032 69 350 1.7 6.1 0.00 0.00 0.00 66 1020.1
20260506183532 69 298 2.6 7.0 0.00 0.00 0.00 66 1020.2
20260506183044 70 5 2.6 7.8 0.00 0.00 0.00 64 1020.1
20260506182531 69 335 2.6 7.8 0.00 0.00 0.00 65 1020.2
20260506182034 70 244 1.7 7.0 0.00 0.00 0.00 63 1020.1
20260506181546 70 277 1.7 7.0 0.00 0.00 0.00 63 1020.1
20260506181031 69 314 0.0 5.2 0.00 0.00 0.00 64 1020.1
20260506180532 69 314 1.7 5.2 0.00 0.00 0.00 64 1020.1
20260506180050 69 310 1.7 4.3 0.00 0.00 0.00 62 1020.2
20260506175536 69 304 0.9 4.3 0.00 0.00 0.00 63 1020.1
20260506175030 69 344 0.9 4.3 0.00 0.00 0.00 63 1020.1
20260506174543 68 254 0.9 4.3 0.00 0.00 0.00 63 1020.2
20260506174032 68 251 0.9 3.5 0.00 0.00 0.00 63 1020.1
20260506173535 68 251 0.9 4.3 0.00 0.00 0.00 64 1020.1
20260506173048 67 249 0.0 6.1 0.00 0.00 0.00 65 1020.1
20260506172531 66 248 2.6 6.1 0.00 0.00 0.00 65 1020.2
20260506172030 67 270 1.7 6.1 0.00 0.00 0.00 65 1020.2
20260506171552 66 269 0.0 5.2 0.00 0.00 0.00 66 1020.2
20260506171035 66 0 0.0 3.5 0.00 0.00 0.00 68 1020.2
20260506170533 65 263 0.0 3.5 0.00 0.00 0.00 68 1020.3
20260506170040 65 263 0.9 3.5 0.00 0.00 0.00 69 1020.3
20260506165534 64 263 0.9 3.5 0.00 0.00 0.00 69 1020.2
20260506165035 63 269 0.0 2.6 0.00 0.00 0.00 71 1020.2
20260506164545 63 0 0.9 4.3 0.00 0.00 0.00 71 1020.3
20260506164034 63 288 0.9 4.3 0.00 0.00 0.00 70 1020.2
20260506163533 62 221 0.9 4.3 0.00 0.00 0.00 72 1020.3
20260506163044 62 221 0.9 5.2 0.00 0.00 0.00 71 1020.3
20260506162532 62 221 0.9 5.2 0.00 0.00 0.00 72 1020.3
20260506162033 62 207 1.7 4.3 0.00 0.00 0.00 72 1020.3
20260506161544 61 205 0.9 4.3 0.00 0.00 0.00 73 1020.3
20260506161031 61 205 0.9 4.3 0.00 0.00 0.00 73 1020.3
20260506160531 61 206 0.9 4.3 0.00 0.00 0.00 73 1020.3
20260506160044 61 207 0.9 5.2 0.00 0.00 0.00 73 1020.2
20260506155531 60 204 1.7 5.2 0.00 0.00 0.00 74 1020.3
20260506155031 60 198 1.7 4.3 0.00 0.00 0.00 74 1020.3
20260506154556 60 192 1.7 5.2 0.00 0.00 0.00 75 1020.3
20260506154032 60 238 1.7 5.2 0.00 0.00 0.00 75 1020.4
20260506153531 60 188 0.9 5.2 0.00 0.00 0.00 75 1020.4
20260506153047 60 227 0.9 5.2 0.00 0.00 0.00 75 1020.3
20260506152532 59 172 0.9 3.5 0.00 0.00 0.00 76 1020.4
20260506152031 59 0 0.0 1.7 0.00 0.00 0.00 76 1020.4
20260506151545 59 0 0.0 0.9 0.00 0.00 0.00 77 1020.3
20260506151032 59 0 0.0 0.9 0.00 0.00 0.00 76 1020.3
20260506150532 59 0 0.0 0.9 0.00 0.00 0.00 78 1020.4
20260506150050 59 0 0.0 0.9 0.00 0.00 0.00 78 1020.2
20260506145533 58 0 0.0 0.9 0.00 0.00 0.00 79 1020.2
20260506145032 58 0 0.0 3.5 0.00 0.00 0.00 79 1020.1
20260506144549 58 0 0.0 3.5 0.00 0.00 0.00 78 1020.1
20260506144033 57 257 0.9 3.5 0.00 0.00 0.00 78 1020.2
20260506143533 57 257 0.0 0.9 0.00 0.00 0.00 79 1020.2
20260506143041 57 0 0.0 2.6 0.00 0.00 0.00 78 1020.1
20260506142531 57 0 0.0 2.6 0.00 0.00 0.00 79 1020.2
20260506142031 57 257 0.0 2.6 0.00 0.00 0.00 79 1020.1
20260506141544 57 0 0.0 2.6 0.00 0.00 0.00 79 1020.0
20260506141034 57 0 0.0 2.6 0.00 0.00 0.00 79 1019.9
20260506140534 56 257 0.9 3.5 0.00 0.00 0.00 79 1019.9
20260506140056 56 257 0.0 3.5 0.00 0.00 0.00 79 1019.8
20260506135531 56 257 0.0 1.7 0.00 0.00 0.00 80 1019.8
20260506135031 56 257 0.0 1.7 0.00 0.00 0.00 80 1019.7
20260506134544 56 0 0.0 2.6 0.00 0.00 0.00 80 1019.7
20260506134031 56 0 0.0 2.6 0.00 0.00 0.00 80 1019.7
20260506133531 56 257 0.9 3.5 0.00 0.00 0.00 80 1019.7
20260506133047 56 257 0.9 3.5 0.00 0.00 0.00 80 1019.7
20260506132534 56 0 0.9 3.5 0.00 0.00 0.00 80 1019.6
20260506132031 56 255 0.9 3.5 0.00 0.00 0.00 79 1019.7
20260506131546 56 255 0.9 3.5 0.00 0.00 0.00 79 1019.7
20260506131031 56 254 0.9 3.5 0.00 0.00 0.00 80 1019.6
20260506130531 56 0 0.0 3.5 0.00 0.00 0.00 79 1019.6
20260506130045 56 254 0.9 4.3 0.00 0.00 0.00 80 1019.6
20260506125531 56 254 0.0 4.3 0.00 0.00 0.00 79 1019.6
20260506125031 56 254 0.9 2.6 0.00 0.00 0.00 79 1019.5
20260506124545 56 256 0.0 2.6 0.00 0.00 0.00 79 1019.4
20260506124031 56 256 0.0 2.6 0.00 0.00 0.00 79 1019.4
20260506123532 56 256 0.0 2.6 0.00 0.00 0.00 79 1019.4
20260506123044 56 256 0.9 4.3 0.00 0.00 0.00 79 1019.4
20260506122532 56 0 0.9 4.3 0.00 0.00 0.00 79 1019.4
20260506122031 56 245 0.9 2.6 0.00 0.00 0.00 79 1019.4
20260506121541 56 245 0.9 2.6 0.00 0.00 0.00 79 1019.5
20260506121033 56 0 0.0 3.5 0.00 0.00 0.00 79 1019.4
20260506120535 56 245 0.9 3.5 0.00 0.00 0.00 79 1019.5
20260506120054 56 245 0.0 3.5 0.00 0.00 0.00 79 1019.4
20260506115532 56 0 0.0 3.5 0.00 0.00 0.00 79 1019.4
20260506115031 56 242 0.9 1.7 0.00 0.00 0.00 80 1019.3
20260506114553 56 0 0.0 4.3 0.00 0.00 0.00 80 1019.3
20260506114031 56 0 0.9 6.1 0.00 0.00 0.00 80 1019.2
20260506113532 56 241 0.9 7.0 0.00 0.00 0.00 80 1019.2
20260506113049 56 194 2.6 7.0 0.00 0.00 0.00 79 1018.9
20260506112535 56 265 0.9 5.2 0.00 0.00 0.00 80 1019.0
20260506112031 56 265 0.9 5.2 0.00 0.00 0.00 80 1018.9
20260506111542 56 248 1.7 3.5 0.00 0.00 0.00 79 1018.9
20260506111033 56 246 0.0 4.3 0.00 0.00 0.00 79 1018.8
20260506110533 56 246 1.7 4.3 0.00 0.00 0.00 79 1018.8
20260506110040 56 245 1.7 3.5 0.00 0.00 0.00 79 1018.8
20260506105530 56 244 0.0 7.0 0.00 0.00 0.00 79 1018.8
20260506105031 56 244 0.9 7.0 0.00 0.00 0.00 79 1018.8
20260506104554 56 245 0.0 4.3 0.00 0.00 0.00 79 1018.8
20260506104032 56 245 0.0 4.3 0.00 0.00 0.00 79 1018.7
20260506103531 56 245 1.7 4.3 0.00 0.00 0.00 79 1018.8
20260506103043 56 0 0.9 4.3 0.00 0.00 0.00 79 1018.8
20260506102534 56 244 1.7 4.3 0.00 0.00 0.00 79 1018.8
20260506102031 56 246 0.9 4.3 0.00 0.00 0.00 79 1018.7
20260506101549 56 246 0.9 6.1 0.00 0.00 0.00 79 1018.7
20260506101032 56 246 0.9 6.1 0.00 0.00 0.00 79 1018.7
20260506100531 56 246 0.9 4.3 0.00 0.00 0.00 79 1018.6
20260506100043 56 246 1.7 4.3 0.00 0.00 0.00 79 1018.7
20260506095535 56 246 0.9 4.3 0.00 0.01 0.00 79 1018.7
20260506095033 56 246 1.7 6.1 0.00 0.01 0.00 79 1018.7
20260506094543 56 246 0.9 6.1 0.00 0.01 0.00 79 1018.7
20260506094031 56 243 1.7 4.3 0.00 0.01 0.00 79 1018.6
20260506093531 56 247 1.7 6.1 0.00 0.01 0.00 79 1018.6
20260506093045 56 247 1.7 6.1 0.00 0.01 0.00 79 1018.5
20260506092532 56 247 2.6 6.1 0.00 0.01 0.00 79 1018.6
20260506092031 56 243 1.7 5.2 0.00 0.01 0.00 79 1018.6
20260506091544 56 244 0.9 6.1 0.00 0.01 0.00 80 1018.6
20260506091031 56 242 1.7 7.0 0.00 0.01 0.00 79 1018.6
20260506090533 56 260 0.9 7.0 0.00 0.01 0.00 80 1018.6
20260506090043 56 278 1.7 6.1 0.00 0.01 0.00 79 1018.7
20260506085531 56 281 1.7 6.1 0.00 0.03 0.00 79 1018.7
20260506085031 56 282 0.9 5.2 0.00 0.03 0.00 80 1018.7
20260506084546 56 282 1.7 6.1 0.00 0.03 0.00 80 1018.7
20260506084031 56 282 2.6 6.1 0.00 0.03 0.00 80 1018.6
20260506083532 56 265 1.7 5.2 0.00 0.03 0.00 80 1018.6
20260506083050 56 0 0.9 3.5 0.00 0.03 0.00 80 1018.7
20260506082531 56 264 0.0 7.8 0.00 0.03 0.00 80 1018.6
20260506082032 56 264 0.9 7.8 0.00 0.03 0.00 80 1018.6
20260506081545 56 265 0.9 7.0 0.00 0.03 0.00 80 1018.6
20260506081035 56 0 0.9 7.0 0.00 0.03 0.00 80 1018.6
20260506080532 56 310 1.7 3.5 0.00 0.03 0.00 80 1018.6
20260506073529 55 0 0.9 2.6 0.00 0.09 0.00 81 1018.3
20260506073046 55 0 0.0 2.6 0.00 0.09 0.00 81 1018.3
20260506072529 55 242 0.0 2.6 0.00 0.09 0.00 81 1018.2
20260506072034 55 242 0.0 2.6 0.00 0.09 0.00 81 1018.3
20260506071548 55 0 0.0 2.6 0.00 0.09 0.00 81 1018.2
20260506071033 55 242 0.9 4.3 0.00 0.09 0.00 81 1018.1
20260506070531 55 0 0.0 7.0 0.00 0.09 0.00 80 1018.2
20260506062033 56 239 2.6 7.8 0.00 0.12 0.09 80 1017.9
20260506061542 56 250 3.5 7.8 0.00 0.12 0.09 79 1017.8
20260506061036 56 238 2.6 6.1 0.00 0.12 0.09 79 1017.7
20260506060532 56 242 1.7 7.0 0.00 0.12 0.09 79 1017.8
20260506051033 57 215 3.5 7.0 0.00 0.15 0.09 77 1017.2
20260506050532 57 248 2.6 7.8 0.00 0.15 0.09 77 1017.1
20260506045030 57 229 0.9 7.8 0.00 0.21 0.09 76 1017.1
20260506044540 57 252 0.9 6.1 0.00 0.21 0.09 76 1017.1
20260506044029 57 182 1.7 6.1 0.00 0.21 0.09 76 1017.0
20260506043532 58 244 1.7 10.4 0.00 0.21 0.09 77 1016.9
20260506043047 58 180 2.6 10.4 0.00 0.21 0.09 76 1016.8
20260506042531 58 219 2.6 8.7 0.00 0.21 0.09 76 1016.8
20260506042032 58 217 0.9 7.8 0.00 0.21 0.09 76 1016.9
20260506041542 58 235 1.7 7.8 0.00 0.21 0.09 76 1016.6
20260506041028 58 204 0.9 6.1 0.00 0.21 0.09 76 1016.6
20260506040530 58 259 1.7 7.8 0.00 0.21 0.09 76 1016.6
20260506040046 59 175 0.9 7.8 0.00 0.21 0.09 75 1016.5
20260506035532 59 211 1.7 7.0 0.00 0.21 0.09 75 1016.5
20260506035031 59 201 1.7 8.7 0.00 0.21 0.09 75 1016.4
20260506034549 59 228 2.6 8.7 0.00 0.21 0.09 74 1016.4
20260506034031 59 192 1.7 7.8 0.00 0.21 0.09 74 1016.3
20260506033531 59 254 1.7 7.8 0.00 0.21 0.09 74 1016.3
20260506033042 59 221 2.6 7.8 0.00 0.21 0.09 74 1016.1
20260506032531 59 223 2.6 7.8 0.00 0.21 0.09 73 1016.0
20260506032031 59 227 2.6 7.8 0.00 0.21 0.09 73 1015.9
20260506031548 59 208 1.7 7.0 0.00 0.21 0.09 73 1015.8
20260506031030 59 202 2.6 7.0 0.00 0.21 0.09 73 1015.8
20260506030528 59 214 2.6 9.6 0.00 0.21 0.09 73 1015.7
20260506030044 60 254 2.6 9.6 0.00 0.21 0.09 73 1015.7
20260506025530 60 184 1.7 7.0 0.00 0.21 0.09 73 1015.7
20260506025033 60 177 0.9 7.0 0.00 0.21 0.09 73 1015.7
20260506024548 60 160 0.9 7.8 0.00 0.21 0.09 73 1015.5
20260506024029 60 218 3.5 7.8 0.00 0.21 0.09 73 1015.6
20260506023531 60 212 3.5 7.8 0.00 0.21 0.09 73 1015.5
20260506023054 61 201 0.9 6.1 0.00 0.21 0.09 73 1015.6
20260506022532 61 242 1.7 7.8 0.00 0.21 0.09 73 1015.4
20260506022031 61 240 2.6 7.8 0.00 0.21 0.09 72 1015.4
20260506021547 61 244 3.5 7.8 0.00 0.21 0.09 72 1015.4
20260506021032 61 194 2.6 7.0 0.00 0.21 0.09 72 1015.3
20260506020531 62 254 1.7 6.1 0.00 0.21 0.09 72 1015.3
20260506020047 62 214 1.7 6.1 0.00 0.21 0.09 72 1015.3
20260506015532 62 199 2.6 6.1 0.00 0.21 0.09 72 1015.3
20260506015034 62 211 2.6 6.1 0.00 0.21 0.09 71 1015.3
20260506014545 62 208 1.7 6.1 0.00 0.21 0.09 72 1015.3
20260506014030 63 224 1.7 7.0 0.00 0.21 0.09 71 1015.2
20260506013529 63 161 2.6 7.0 0.00 0.21 0.09 71 1015.2
20260506013043 63 205 1.7 7.0 0.00 0.21 0.09 71 1015.1
20260506012531 63 211 2.6 7.8 0.00 0.21 0.09 70 1015.1
20260506012030 64 263 1.7 7.8 0.00 0.21 0.09 71 1015.1
20260506011538 64 224 2.6 5.2 0.00 0.21 0.09 71 1015.0
20260506011030 64 205 1.7 6.1 0.00 0.21 0.09 70 1015.1
20260506010529 64 284 2.6 7.0 0.00 0.21 0.09 70 1015.1
20260506010048 64 256 2.6 7.0 0.00 0.21 0.09 70 1015.0
20260506005528 65 228 1.7 8.7 0.00 0.21 0.09 69 1015.0
20260506005028 65 177 2.6 8.7 0.00 0.21 0.09 67 1015.0
20260506004548 65 164 2.6 7.0 0.00 0.21 0.09 68 1014.9
20260506004028 65 201 1.7 7.0 0.00 0.21 0.09 68 1014.9
20260506003529 65 195 3.5 7.0 0.00 0.21 0.09 68 1015.0
20260506003045 64 205 1.7 9.6 0.00 0.21 0.09 69 1014.9
20260506002528 64 240 2.6 9.6 0.00 0.21 0.09 68 1014.9
20260506002030 64 199 2.6 7.0 0.00 0.21 0.09 68 1014.9
20260506001546 65 184 2.6 7.8 0.00 0.21 0.09 68 1014.9
20260506001029 65 186 3.5 7.8 0.00 0.21 0.09 68 1014.9
20260506000531 65 261 1.7 7.8 0.00 0.21 0.09 68 1014.7
20260506000042 65 202 2.6 7.8 0.00 0.21 0.09 67 1014.8
20260505235528 66 265 3.5 7.0 0.00 0.21 0.09 65 1014.8
20260505235029 67 215 1.7 7.8 0.00 0.21 0.09 66 1014.8
20260505234601 65 207 3.5 7.8 0.00 0.21 0.09 67 1014.9
20260505234035 65 180 2.6 7.0 0.00 0.21 0.09 67 1014.8
20260505233531 66 223 0.9 7.8 0.00 0.21 0.09 68 1014.9
20260505233044 65 186 0.9 7.8 0.00 0.21 0.09 70 1014.9
20260505232534 64 198 2.6 7.8 0.00 0.21 0.09 71 1014.9
20260505232036 63 211 2.6 7.8 0.00 0.21 0.09 70 1015.0
20260505231545 64 204 2.6 7.0 0.00 0.21 0.09 70 1015.0
20260505231033 64 186 2.6 5.2 0.00 0.21 0.09 70 1015.1
20260505230530 64 256 1.7 5.2 0.00 0.21 0.09 70 1015.0
20260505230043 64 180 0.9 6.1 0.00 0.21 0.09 72 1015.1
20260505225534 63 199 1.7 6.1 0.00 0.21 0.09 71 1015.1
20260505225035 63 192 1.7 7.0 0.00 0.21 0.09 70 1015.1
20260505224542 64 210 1.7 7.0 0.00 0.21 0.09 70 1015.1
20260505224035 64 219 1.7 7.0 0.00 0.21 0.09 70 1015.2
20260505223530 64 204 0.9 6.1 0.00 0.21 0.09 70 1015.0
20260505223047 64 242 1.7 6.1 0.00 0.21 0.09 70 1015.1
20260505222535 64 0 0.9 6.1 0.00 0.21 0.09 70 1015.1
20260505222032 64 0 0.0 6.1 0.00 0.21 0.09 71 1015.1
20260505221545 64 191 1.7 7.0 0.00 0.21 0.09 70 1015.2
20260505221032 64 196 1.7 7.0 0.00 0.21 0.09 70 1015.3
20260505220530 65 222 0.9 6.1 0.00 0.21 0.09 69 1015.3
20260505220045 65 202 2.6 6.1 0.00 0.21 0.09 69 1015.2
20260505215534 65 214 1.7 6.1 0.00 0.21 0.09 69 1015.3
20260505215033 65 198 1.7 6.1 0.00 0.21 0.09 69 1015.2
20260505214601 65 207 0.9 6.1 0.00 0.21 0.09 71 1015.3
20260505214030 64 204 2.6 6.1 0.00 0.21 0.09 69 1015.3
20260505213537 64 248 1.7 6.1 0.00 0.21 0.09 70 1015.4
20260505213057 63 240 1.7 4.3 0.00 0.21 0.09 71 1015.4
20260505212532 63 0 0.9 4.3 0.00 0.21 0.09 72 1015.5
20260505212031 63 235 1.7 4.3 0.00 0.21 0.09 72 1015.5